TimePST,TemperatureF,Dew PointF,Humidity,Sea Level PressureIn,VisibilityMPH,Wind Direction,Wind SpeedMPH,Gust SpeedMPH,PrecipitationIn,Events,Conditions,WindDirDegrees,DateUTC
12:54 AM,57.9,48.9,72,30.17,6.0,Calm,Calm,-,N/A,,Haze,0,2012-11-05 08:54:00
1:54 AM,55.0,46.9,74,30.16,6.0,Calm,Calm,-,N/A,,Haze,0,2012-11-05 09:54:00
2:54 AM,54.0,46.0,75,30.15,6.0,ENE,3.5,-,N/A,,Haze,70,2012-11-05 10:54:00
3:54 AM,54.0,46.9,77,30.14,6.0,ESE,4.6,-,N/A,,Haze,120,2012-11-05 11:54:00
4:54 AM,54.0,46.0,75,30.15,7.0,SE,3.5,-,N/A,,Clear,140,2012-11-05 12:54:00
5:54 AM,54.0,46.0,75,30.15,7.0,Calm,Calm,-,N/A,,Clear,0,2012-11-05 13:54:00
6:54 AM,54.0,45.0,72,30.16,6.0,ENE,4.6,-,N/A,,Haze,60,2012-11-05 14:54:00
7:54 AM,60.1,46.9,62,30.17,5.0,Calm,Calm,-,N/A,,Haze,0,2012-11-05 15:54:00
8:54 AM,66.9,46.9,49,30.17,6.0,Calm,Calm,-,N/A,,Haze,0,2012-11-05 16:54:00
9:54 AM,70.0,48.9,47,30.17,5.0,WNW,3.5,-,N/A,,Haze,290,2012-11-05 17:54:00
10:54 AM,72.0,51.1,48,30.15,5.0,Variable,4.6,-,N/A,,Haze,0,2012-11-05 18:54:00
11:54 AM,75.9,52.0,43,30.12,5.0,WNW,4.6,-,N/A,,Haze,290,2012-11-05 19:54:00
12:54 PM,78.1,52.0,40,30.09,5.0,West,3.5,-,N/A,,Haze,270,2012-11-05 20:54:00
1:54 PM,79.0,53.1,40,30.07,6.0,Variable,3.5,-,N/A,,Haze,0,2012-11-05 21:54:00
2:54 PM,80.1,53.1,39,30.06,7.0,West,8.1,-,N/A,,Clear,270,2012-11-05 22:54:00
3:54 PM,79.0,53.1,40,30.05,7.0,West,5.8,-,N/A,,Clear,280,2012-11-05 23:54:00
4:54 PM,73.9,53.1,48,30.05,7.0,WNW,4.6,-,N/A,,Clear,290,2012-11-06 00:54:00
5:54 PM,70.0,53.1,55,30.07,7.0,Calm,Calm,-,N/A,,Clear,0,2012-11-06 01:54:00
6:54 PM,66.0,51.1,59,30.08,6.0,Calm,Calm,-,N/A,,Haze,0,2012-11-06 02:54:00
7:54 PM,63.0,50.0,63,30.08,6.0,NE,5.8,-,N/A,,Haze,50,2012-11-06 03:54:00
8:54 PM,64.0,51.1,63,30.08,6.0,Calm,Calm,-,N/A,,Haze,0,2012-11-06 04:54:00
9:54 PM,62.6,50.0,63,30.09,6.0,Calm,Calm,-,N/A,,Haze,0,2012-11-06 05:54:00
10:54 PM,57.9,48.9,72,30.08,5.0,NE,4.6,-,N/A,,Haze,40,2012-11-06 06:54:00
11:54 PM,60.1,50.0,69,30.07,5.0,Calm,Calm,-,N/A,,Haze,0,2012-11-06 07:54:00